SP2WPY-13 Weather Reports


time (UTC)temp
C
wind
direction
speed
KPH
gust
KPH
rain 1hr
cm
rain 24hr
cm
rain mn
cm
humidity
%
barometer
mb
20260507021113 5 19 8.0 0.0 0.00 0.00 0.00 100 1013.4
20260507020639 5 349 6.4 0.0 0.00 0.00 0.00 100 1013.3
20260507020120 5 54 8.0 0.0 0.00 0.00 0.00 100 1013.3
20260507015645 5 0 8.0 0.0 0.00 0.00 0.00 100 1013.3
20260507015125 5 44 8.0 0.0 0.00 0.00 0.00 100 1013.3
20260507014605 5 18 9.7 0.0 0.00 0.00 0.00 100 1013.3
20260507014132 5 27 11.3 0.0 0.00 0.00 0.00 100 1013.2
20260507013613 5 23 19.3 0.0 0.00 0.00 0.00 100 1013.2
20260507013138 5 31 17.7 0.0 0.00 0.00 0.00 100 1013.4
20260507012619 5 39 9.7 0.0 0.00 0.00 0.00 100 1013.4
20260507012145 5 21 11.3 0.0 0.00 0.00 0.00 100 1013.3
20260507011624 5 28 12.9 0.0 0.00 0.00 0.00 100 1013.1
20260507011106 5 19 19.3 0.0 0.00 0.00 0.00 100 1013.1
20260507010631 5 15 8.0 0.0 0.00 0.00 0.00 100 1013.1
20260507010111 5 45 11.3 0.0 0.00 0.00 0.00 100 1013.0
20260507005637 5 28 12.9 0.0 0.00 0.00 0.00 100 1012.8
20260507005118 5 20 14.5 0.0 0.00 0.00 0.00 100 1012.8
20260507004643 5 18 6.4 0.0 0.00 0.00 0.00 100 1012.7
20260507004125 5 14 11.3 0.0 0.00 0.00 0.00 100 1012.7
20260507003605 5 24 22.5 0.0 0.00 0.00 0.00 100 1012.5
20260507003130 5 17 17.7 0.0 0.00 0.00 0.00 100 1012.3
20260507002610 5 32 12.9 0.0 0.00 0.00 0.00 100 1012.5
20260507002136 5 14 12.9 0.0 0.00 0.00 0.00 100 1012.6
20260507001617 5 352 14.5 0.0 0.00 0.00 0.00 100 1012.5
20260507001142 5 18 17.7 0.0 0.00 0.00 0.00 100 1012.6
20260507000624 5 2 9.7 0.0 0.00 0.00 0.00 100 1012.5
20260507000104 5 31 17.7 0.0 0.00 0.00 0.00 100 1012.6
20260506235629 5 4 9.7 0.0 0.00 0.00 0.00 100 1012.6
20260506235110 5 2 9.7 0.0 0.00 0.00 0.00 100 1012.5
20260506234636 5 349 9.7 0.0 0.00 0.00 0.00 100 1012.6
20260506234117 5 22 12.9 0.0 0.00 0.00 0.00 100 1012.6
20260506233643 5 20 16.1 0.0 0.00 0.00 0.00 100 1012.3
20260506233123 5 7 11.3 0.0 0.00 0.00 0.00 100 1012.2
20260506232603 5 357 14.5 0.0 0.00 0.00 0.00 100 1012.3
20260506232130 5 9 12.9 0.0 0.00 0.00 0.00 100 1012.5
20260506231609 5 17 16.1 0.0 0.00 0.00 0.00 100 1012.5
20260506231136 5 18 16.1 0.0 0.00 0.00 0.00 100 1012.6
20260506230616 5 29 9.7 0.0 0.00 0.00 0.00 100 1012.5
20260506230142 5 20 6.4 0.0 0.00 0.00 0.00 100 1012.5
20260506225622 5 39 14.5 0.0 0.00 0.00 0.00 100 1012.5
20260506225102 5 6 12.9 0.0 0.00 0.00 0.00 100 1012.5
20260506224629 5 23 14.5 0.0 0.00 0.00 0.00 100 1012.5
20260506224109 5 31 14.5 0.0 0.00 0.00 0.00 100 1012.6
20260506223635 5 342 4.8 0.0 0.00 0.00 0.00 100 1012.5
20260506223116 5 70 8.0 0.0 0.00 0.00 0.00 100 1012.3
20260506222641 5 60 9.7 0.0 0.00 0.00 0.00 100 1012.5
20260506222122 5 14 9.7 0.0 0.00 0.00 0.00 100 1012.6
20260506221603 5 22 8.0 0.0 0.00 0.00 0.00 100 1012.3
20260506221128 5 72 6.4 0.0 0.00 0.00 0.00 100 1012.5
20260506220608 5 354 4.8 0.0 0.00 0.00 0.00 100 1012.3
20260506220134 5 37 14.5 0.0 0.00 0.00 0.00 100 1012.2
20260506215615 5 25 14.5 0.0 0.00 0.00 0.00 100 1012.3
20260506215140 5 42 12.9 0.0 0.00 0.00 0.00 100 1012.1
20260506214621 5 36 12.9 0.0 0.00 0.00 0.00 100 1012.1
20260506214101 5 11 12.9 0.0 0.00 0.00 0.00 100 1012.1
20260506213628 5 4 8.0 0.0 0.00 0.00 0.00 100 1012.2
20260506213108 5 11 9.7 0.0 0.00 0.00 0.00 100 1012.2
20260506212634 5 32 12.9 0.0 0.00 0.00 0.00 100 1012.2
20260506212114 5 15 9.7 0.0 0.00 0.00 0.00 100 1012.2
20260506211641 5 25 16.1 0.0 0.00 0.00 0.00 100 1012.2
20260506211121 5 44 12.9 0.0 0.00 0.00 0.00 100 1012.1
20260506210601 5 35 17.7 0.0 0.00 0.00 0.00 100 1012.1
20260506210126 5 36 14.5 0.0 0.00 0.00 0.00 100 1012.0
20260506205608 5 46 14.5 0.0 0.00 0.00 0.00 100 1012.1
20260506205133 5 60 11.3 0.0 0.00 0.00 0.00 100 1012.1
20260506204613 5 15 9.7 0.0 0.00 0.00 0.00 100 1012.0
20260506204141 5 32 16.1 0.0 0.00 0.00 0.00 100 1011.7
20260506203620 5 28 11.3 0.0 0.00 0.00 0.00 100 1011.6
20260506203101 5 48 11.3 0.0 0.00 0.00 0.00 100 1011.7
20260506202628 5 54 17.7 0.0 0.00 0.00 0.00 100 1011.7
20260506202107 5 33 17.7 0.0 0.00 0.00 0.00 100 1011.6
20260506201633 5 37 17.7 0.0 0.00 0.00 0.00 100 1011.6
20260506201114 5 39 14.5 0.0 0.00 0.00 0.00 100 1011.7
20260506200640 5 39 24.1 0.0 0.00 0.00 0.00 100 1011.7
20260506200120 5 39 17.7 0.0 0.00 0.00 0.00 100 1011.8
20260506195646 5 44 14.5 0.0 0.00 0.00 0.00 100 1011.8
20260506195127 5 33 14.5 0.0 0.00 0.00 0.00 100 1011.8
20260506194607 5 37 16.1 0.0 0.00 0.00 0.00 100 1011.9
20260506194133 5 35 20.9 0.0 0.00 0.00 0.00 100 1011.9
20260506193614 5 32 19.3 0.0 0.00 0.00 0.00 100 1011.7
20260506193139 5 46 12.9 0.0 0.00 0.00 0.00 100 1011.8
20260506192619 5 29 12.9 0.0 0.00 0.00 0.00 100 1011.8
20260506192146 5 15 16.1 0.0 0.00 0.00 0.00 100 1011.8
20260506191625 5 51 11.3 0.0 0.00 0.00 0.00 100 1011.8
20260506191106 5 51 14.5 0.0 0.00 0.00 0.00 100 1011.7
20260506190632 5 48 12.9 0.0 0.00 0.00 0.00 100 1011.7
20260506190113 5 52 12.9 0.0 0.00 0.00 0.00 100 1011.6
20260506185639 5 63 16.1 0.0 0.00 0.00 0.00 100 1011.6
20260506185118 5 43 16.1 0.0 0.00 0.00 0.00 100 1011.7
20260506184645 5 23 19.3 0.0 0.00 0.00 0.00 100 1011.7
20260506184126 5 13 11.3 0.0 0.00 0.00 0.00 100 1011.6
20260506183605 5 35 20.9 0.0 0.00 0.00 0.00 100 1011.4
20260506183132 5 13 12.9 0.0 0.00 0.00 0.00 100 1011.4
20260506182612 5 29 16.1 0.0 0.00 0.00 0.00 100 1011.3
20260506182138 5 6 14.5 0.0 0.00 0.00 0.00 100 1011.3
20260506181618 5 41 17.7 0.0 0.00 0.00 0.00 100 1011.3
20260506181145 5 34 20.9 0.0 0.00 0.00 0.00 100 1011.1
20260506180625 5 49 11.3 0.0 0.00 0.00 0.00 100 1011.2
20260506180105 5 42 12.9 0.0 0.00 0.00 0.00 100 1011.2
20260506175631 5 37 14.5 0.0 0.00 0.00 0.00 100 1011.2
20260506175112 5 44 16.1 0.0 0.00 0.00 0.00 100 1011.0
20260506174638 5 37 11.3 0.0 0.00 0.00 0.00 100 1011.2
20260506174118 5 48 19.3 0.0 0.00 0.00 0.00 100 1011.1
20260506173644 5 40 16.1 0.0 0.00 0.00 0.00 100 1011.1
20260506173125 5 39 12.9 0.0 0.00 0.00 0.00 100 1011.1
20260506172605 5 36 16.1 0.0 0.00 0.00 0.00 100 1011.0
20260506172131 5 39 16.1 0.0 0.00 0.00 0.00 100 1011.1
20260506171611 5 34 16.1 0.0 0.00 0.00 0.00 100 1011.0
20260506171138 5 29 16.1 0.0 0.00 0.00 0.00 100 1011.1
20260506170617 5 9 14.5 0.0 0.00 0.00 0.00 100 1011.0
20260506170143 5 27 12.9 0.0 0.00 0.00 0.00 100 1011.1
20260506165624 5 37 20.9 0.0 0.00 0.00 0.00 100 1011.0
20260506165105 5 13 12.9 0.0 0.00 0.00 0.00 100 1011.0
20260506164630 5 23 9.7 0.0 0.00 0.00 0.00 100 1011.0
20260506164110 5 47 12.9 0.0 0.00 0.00 0.00 100 1011.0
20260506163637 5 60 11.3 0.0 0.00 0.00 0.00 100 1011.1
20260506163117 5 25 17.7 0.0 0.00 0.00 0.00 100 1011.1
20260506162643 5 34 11.3 0.0 0.00 0.00 0.00 100 1011.0
20260506162123 5 58 11.3 0.0 0.00 0.00 0.00 100 1011.1
20260506161604 5 51 16.1 0.0 0.00 0.00 0.00 100 1011.1
20260506161130 5 41 11.3 0.0 0.00 0.00 0.00 100 1011.1
20260506160610 5 47 12.9 0.0 0.00 0.00 0.00 100 1010.9
20260506160135 5 51 6.4 0.0 0.00 0.00 0.00 100 1011.0
20260506155616 5 20 11.3 0.0 0.00 0.00 0.00 100 1011.0
20260506155142 5 42 19.3 0.0 0.00 0.00 0.00 100 1011.1
20260506154623 5 47 16.1 0.0 0.00 0.00 0.00 100 1011.0
20260506154103 5 39 22.5 0.0 0.00 0.00 0.00 100 1011.0
20260506153628 5 59 16.1 0.0 0.00 0.00 0.00 100 1011.1
20260506153110 5 60 11.3 0.0 0.00 0.00 0.00 100 1011.2
20260506152635 5 58 11.3 0.0 0.00 0.00 0.00 100 1011.1
20260506152116 5 50 14.5 0.0 0.00 0.00 0.00 100 1011.1
20260506151642 5 45 19.3 0.0 0.00 0.00 0.00 100 1011.1
20260506151122 5 62 16.1 0.0 0.00 0.00 0.00 100 1011.0
20260506150602 5 56 16.1 0.0 0.00 0.00 0.00 100 1011.0
20260506150129 5 41 22.5 0.0 0.00 0.00 0.00 100 1011.0
20260506145608 5 59 16.1 0.0 0.00 0.00 0.00 100 1011.1
20260506145135 5 52 12.9 0.0 0.00 0.00 0.00 100 1011.1
20260506144614 5 54 4.8 0.0 0.00 0.00 0.00 100 1011.2
20260506144141 5 57 14.5 0.0 0.00 0.00 0.00 100 1011.2
20260506143622 5 64 19.3 0.0 0.00 0.00 0.00 100 1011.2
20260506143101 5 51 16.1 0.0 0.00 0.00 0.00 100 1011.3
20260506142628 5 47 17.7 0.0 0.00 0.00 0.00 100 1011.2
20260506142109 5 60 9.7 0.0 0.00 0.00 0.00 100 1011.4
20260506141635 5 49 19.3 0.0 0.00 0.00 0.00 100 1011.4
20260506141115 5 77 12.9 0.0 0.00 0.00 0.00 100 1011.4
20260506140641 5 63 17.7 0.0 0.00 0.00 0.00 100 1011.3
20260506140121 5 47 16.1 0.0 0.00 0.00 0.00 100 1011.3
20260506135601 5 62 16.1 0.0 0.00 0.00 0.00 100 1011.2
20260506135128 5 66 11.3 0.0 0.00 0.00 0.00 100 1011.1
20260506134608 5 66 16.1 0.0 0.00 0.00 0.00 100 1011.1
20260506134134 5 86 9.7 0.0 0.00 0.00 0.00 100 1011.1
20260506133614 5 60 16.1 0.0 0.00 0.00 0.00 100 1011.0
20260506133140 5 48 20.9 0.0 0.00 0.00 0.00 100 1010.9
20260506132620 5 93 11.3 0.0 0.00 0.00 0.00 100 1011.0
20260506132101 5 46 25.7 0.0 0.00 0.00 0.00 100 1011.0
20260506131627 5 54 19.3 0.0 0.00 0.00 0.00 100 1010.9
20260506131108 6 50 20.9 0.0 0.00 0.00 0.00 100 1010.9
20260506130633 6 54 24.1 0.0 0.00 0.00 0.00 100 1011.0
20260506130113 6 52 17.7 0.0 0.00 0.00 0.00 100 1011.0
20260506125640 6 42 29.0 0.0 0.00 0.00 0.00 100 1011.0
20260506125119 6 61 16.1 0.0 0.00 0.00 0.00 100 1011.1
20260506124645 6 47 19.3 0.0 0.00 0.00 0.00 100 1011.1
20260506124126 6 64 12.9 0.0 0.00 0.00 0.00 100 1011.1
20260506123606 6 28 16.1 0.0 0.00 0.00 0.00 100 1011.2
20260506123133 6 49 14.5 0.0 0.00 0.00 0.00 100 1011.2
20260506122613 6 46 20.9 0.0 0.00 0.00 0.00 100 1011.1
20260506122140 6 63 16.1 0.0 0.00 0.00 0.00 100 1011.2
20260506121618 6 49 14.5 0.0 0.00 0.00 0.00 100 1011.2
20260506121146 6 45 19.3 0.0 0.00 0.00 0.00 100 1011.1
20260506120626 6 55 11.3 0.0 0.00 0.00 0.00 100 1011.1
20260506120105 5 45 16.1 0.0 0.00 0.00 0.00 100 1011.1
20260506115633 5 26 9.7 0.0 0.00 0.00 0.00 100 1011.2
20260506115112 5 43 19.3 0.0 0.00 0.00 0.00 100 1011.2
20260506114639 5 53 17.7 0.0 0.00 0.00 0.00 100 1011.2
20260506114120 5 41 22.5 0.0 0.00 0.00 0.00 100 1011.4
20260506113645 5 58 14.5 0.0 0.00 0.00 0.00 100 1011.1
20260506113126 5 27 17.7 0.0 0.00 0.00 0.00 100 1011.1
20260506112606 5 41 9.7 0.0 0.00 0.00 0.00 100 1011.3
20260506112132 5 42 14.5 0.0 0.00 0.00 0.00 100 1011.1
20260506111613 5 43 16.1 0.0 0.00 0.00 0.00 100 1011.1
20260506111138 5 40 11.3 0.0 0.00 0.00 0.00 100 1011.0
20260506110619 5 42 17.7 0.0 0.00 0.00 0.00 100 1011.0
20260506110144 6 46 9.7 0.0 0.00 0.00 0.00 100 1011.0
20260506105625 6 49 14.5 0.0 0.00 0.00 0.00 100 1011.1
20260506105105 6 61 12.9 0.0 0.00 0.00 0.00 100 1011.2
20260506104631 6 37 6.4 0.0 0.00 0.00 0.00 100 1011.2
20260506104112 6 35 12.9 0.0 0.00 0.00 0.00 100 1011.2
20260506103638 6 42 11.3 0.0 0.00 0.00 0.00 100 1011.4
20260506103118 6 33 8.0 0.0 0.00 0.00 0.00 100 1011.2
20260506102643 6 17 6.4 0.0 0.00 0.00 0.00 100 1011.0
20260506102125 6 47 12.9 0.0 0.00 0.00 0.00 100 1011.1
20260506101604 6 46 14.5 0.0 0.00 0.00 0.00 100 1011.0
20260506101130 6 41 12.9 0.0 0.00 0.00 0.00 100 1011.0
20260506100611 6 64 11.3 0.0 0.00 0.00 0.00 100 1011.3
20260506100137 6 53 11.3 0.0 0.00 0.00 0.00 100 1011.2
20260506095617 6 41 16.1 0.0 0.00 0.00 0.00 100 1011.1
20260506095143 6 52 12.9 0.0 0.00 0.00 0.00 100 1011.2
20260506094624 6 46 12.9 0.0 0.00 0.00 0.00 100 1011.0
20260506094104 6 73 11.3 0.0 0.00 0.00 0.00 100 1010.9
20260506093629 6 86 6.4 0.0 0.00 0.00 0.00 100 1010.8
20260506093110 6 56 14.5 0.0 0.00 0.00 0.00 100 1010.6
20260506092637 6 93 11.3 0.0 0.00 0.00 0.00 100 1010.6
20260506092116 6 59 16.1 0.0 0.00 0.00 0.00 100 1010.4
20260506091643 7 44 19.3 0.0 0.00 0.00 0.00 100 1010.6
20260506091123 7 74 9.7 0.0 0.00 0.00 0.00 100 1010.7
20260506090603 7 57 12.9 0.0 0.00 0.00 0.00 100 1010.7
20260506090130 6 107 8.0 0.0 0.00 0.00 0.00 100 1010.7
20260506085609 6 88 14.5 0.0 0.00 0.00 0.00 100 1010.6
20260506085136 6 83 14.5 0.0 0.00 0.00 0.00 100 1010.6
20260506084617 6 82 9.7 0.0 0.00 0.00 0.00 100 1010.7
20260506084142 6 92 17.7 0.0 0.00 0.00 0.00 100 1010.9
20260506083623 6 90 16.1 0.0 0.00 0.00 0.00 100 1010.9
20260506083103 6 62 8.0 0.0 0.00 0.00 0.00 100 1010.8
20260506082629 6 50 9.7 0.0 0.00 0.00 0.00 100 1010.8
20260506082110 6 103 17.7 0.0 0.00 0.00 0.00 100 1010.8
20260506081635 7 89 17.7 0.0 0.00 0.00 0.00 100 1010.9
20260506081115 6 83 14.5 0.0 0.00 0.00 0.00 100 1010.8
20260506080641 7 90 17.7 0.0 0.00 0.00 0.00 100 1010.9
20260506080122 7 72 17.7 0.0 0.00 0.00 0.00 100 1011.0
20260506073141 7 83 14.5 0.0 0.00 0.00 0.00 100 1011.2
20260506072621 7 58 12.9 0.0 0.00 0.00 0.00 100 1011.0
20260506072101 7 70 12.9 0.0 0.00 0.00 0.00 100 1011.1
20260506071628 7 54 17.7 0.0 0.00 0.00 0.00 100 1011.1
20260506071108 7 70 9.7 0.0 0.00 0.00 0.00 100 1011.1
20260506070633 7 59 11.3 0.0 0.00 0.00 0.00 100 1011.1
20260506070115 7 56 9.7 0.0 0.00 0.00 0.00 100 1011.1
20260506062140 7 51 11.3 0.0 0.00 0.00 0.00 100 1011.4
20260506061621 7 51 6.4 0.0 0.00 0.00 0.00 100 1011.4
20260506061146 7 53 8.0 0.0 0.00 0.00 0.00 100 1011.4
20260506060627 7 39 12.9 0.0 0.00 0.00 0.00 100 1011.4
20260506060106 7 70 11.3 0.0 0.00 0.00 0.00 100 1011.4
20260506051137 7 38 8.0 0.0 0.00 0.00 0.00 100 1011.7
20260506050618 7 54 9.7 0.0 0.00 0.00 0.00 100 1011.7
20260506050144 7 42 6.4 0.0 0.00 0.00 0.00 100 1011.8
20260506045104 7 58 9.7 0.0 0.00 0.00 0.00 100 1011.8
20260506044631 7 65 9.7 0.0 0.00 0.00 0.00 100 1011.7
20260506044112 7 46 6.4 0.0 0.00 0.00 0.00 100 1011.9
20260506043636 6 48 8.0 0.0 0.00 0.00 0.00 100 1011.9
20260506043118 6 62 6.4 0.0 0.00 0.00 0.00 100 1012.0
20260506042645 6 81 8.0 0.0 0.00 0.00 0.00 100 1012.0
20260506042123 6 49 9.7 0.0 0.00 0.00 0.00 100 1011.9
20260506041604 6 43 8.0 0.0 0.00 0.00 0.00 100 1011.9
20260506041130 6 42 8.0 0.0 0.00 0.00 0.00 100 1011.9
20260506040611 6 69 4.8 0.0 0.00 0.00 0.00 100 1012.0
20260506040136 6 83 3.2 0.0 0.00 0.00 0.00 100 1012.1
20260506035616 6 53 6.4 0.0 0.00 0.00 0.00 100 1012.0
20260506035144 6 46 8.0 0.0 0.00 0.00 0.00 100 1012.1
20260506034623 6 68 6.4 0.0 0.00 0.00 0.00 100 1012.1
20260506034104 6 64 8.0 0.0 0.00 0.00 0.00 100 1012.0
20260506033630 6 45 6.4 0.0 0.00 0.00 0.00 100 1012.1
20260506033109 6 54 11.3 0.0 0.00 0.00 0.00 100 1012.1
20260506032636 6 64 4.8 0.0 0.00 0.00 0.00 100 1012.0
20260506032116 6 35 6.4 0.0 0.00 0.00 0.00 100 1012.1
20260506031643 6 38 8.0 0.0 0.00 0.00 0.00 100 1012.1
20260506031123 6 42 6.4 0.0 0.00 0.00 0.00 100 1012.1
20260506030602 6 60 6.4 0.0 0.00 0.00 0.00 100 1012.1
20260506030129 6 21 3.2 0.0 0.00 0.00 0.00 100 1012.0
20260506025609 6 39 9.7 0.0 0.00 0.00 0.00 100 1012.1
20260506025135 6 18 9.7 0.0 0.00 0.00 0.00 100 1012.1
20260506024616 6 45 6.4 0.0 0.00 0.00 0.00 100 1012.1
20260506024142 6 52 4.8 0.0 0.00 0.00 0.00 100 1012.1
20260506023622 6 79 4.8 0.0 0.00 0.00 0.00 100 1012.1
20260506023103 6 27 8.0 0.0 0.00 0.00 0.00 100 1012.1
20260506022628 6 55 8.0 0.0 0.00 0.00 0.00 100 1012.1
20260506022109 6 41 4.8 0.0 0.00 0.00 0.00 100 1012.2
20260506021635 6 25 4.8 0.0 0.00 0.00 0.00 100 1012.3